Location: Northam
(31.6525°S, 116.6655°E)
Time: 18:51:48
(UTC+08:00)

SR - All Passes

Search period start: 15 June 2021 00:00
Search period end: 25 June 2021 00:00
Orbit: 574 x 880 km, 66.7° (Epoch: 14 June)

Date Brightness Start Highest point End Pass type
(mag) Time Alt. Az. Time Alt. Az. Time Alt. Az.
15 Jun - 04:31:34 10° NNE 04:34:40 20° ENE 04:37:45 10° ESE visible
15 Jun - 06:12:52 10° WNW 06:16:26 26° WSW 06:20:02 10° S visible
15 Jun - 14:56:20 10° SSW 15:01:19 59° ESE 15:06:43 10° NE daylight
15 Jun - 16:40:21 10° WSW 16:42:58 14° WNW 16:45:40 10° NW daylight
16 Jun - 05:22:20 10° NW 05:26:33 65° WSW 05:30:47 10° SSE visible
16 Jun - 14:07:08 10° S 14:11:26 27° ESE 14:16:00 10° ENE daylight
16 Jun - 15:48:54 10° SW 15:53:24 31° WNW 15:58:12 10° N daylight
17 Jun - 04:32:46 10° N 04:36:51 46° ENE 04:40:55 10° SE visible
17 Jun - 06:17:14 10° W 06:19:04 12° SW 06:20:55 10° SSW visible
17 Jun - 13:18:52 10° SSE 13:21:22 13° SE 13:23:55 10° E daylight
17 Jun - 14:58:38 10° SSW 15:03:43 69° WNW 15:09:12 10° NNE daylight
18 Jun - 03:44:23 10° NNE 03:47:17 18° ENE 03:50:10 10° ESE night (unlit)
18 Jun - 05:25:20 10° WNW 05:29:00 28° WSW 05:32:43 10° S visible
18 Jun - 14:08:57 10° SSW 14:13:56 54° ESE 14:19:18 10° NE daylight
18 Jun - 15:52:38 10° WSW 15:55:37 15° WNW 15:58:42 10° NW daylight
19 Jun - 04:34:54 10° NNW 04:39:08 72° WSW 04:43:24 10° SSE visible
19 Jun - 13:19:48 10° S 13:24:01 26° ESE 13:28:29 10° ENE daylight
19 Jun - 15:01:24 10° SW 15:06:02 34° WNW 15:10:58 10° N daylight
20 Jun - 03:45:27 10° N 03:49:27 41° ENE 03:53:27 10° SE night (unlit)
20 Jun - 05:29:28 10° W 05:31:38 14° SW 05:33:48 10° SSW visible
20 Jun - 12:31:44 10° SSE 12:33:55 13° SE 12:36:10 10° ESE daylight
20 Jun - 14:11:12 10° SSW 14:16:20 75° WNW 14:21:53 10° NNE daylight
21 Jun - 02:57:15 10° NE 02:59:54 16° ENE 03:02:33 10° ESE night (unlit)
21 Jun - 04:37:48 10° WNW 04:41:34 31° WSW 04:45:23 10° S night (unlit)
21 Jun - 13:21:34 10° SSW 13:26:32 50° ESE 13:31:53 10° NE daylight
21 Jun - 15:04:58 10° WSW 15:08:15 17° WNW 15:11:41 10° NW daylight
22 Jun - 03:47:29 10° NNW 03:51:44 80° WSW 03:56:00 10° SSE night (unlit)
22 Jun - 12:32:29 10° S 12:36:36 24° ESE 12:40:59 10° ENE daylight
22 Jun - 14:13:54 10° SW 14:18:39 37° WNW 14:23:44 10° N daylight
23 Jun - 02:58:08 10° N 03:02:03 37° ENE 03:05:59 10° SE night (unlit)
23 Jun - 04:41:45 10° W 04:44:11 15° SW 04:46:38 10° SSW night (unlit)
23 Jun - 11:44:38 10° SSE 11:46:29 12° SE 11:48:22 10° ESE daylight
23 Jun - 13:23:47 10° SSW 13:28:57 81° WNW 13:34:32 10° NNE daylight
24 Jun - 02:10:09 10° NE 02:12:31 15° ENE 02:14:53 10° ESE night (unlit)
24 Jun - 03:50:18 10° NW 03:54:08 33° WSW 03:58:03 10° S night (unlit)
24 Jun - 12:34:12 10° SSW 12:39:08 47° ESE 12:44:28 10° NE daylight
24 Jun - 14:17:20 10° WSW 14:20:54 18° WNW 14:24:37 10° NNW daylight
